DLH2CN EDDH-EDDF

Flight info

Callsign DLH2CN
Flight time 0h 51m
Altitude 33000
Route AMLUH2G AMLUH M852 DENIX DCT OBATU DCT RIMET/N0430F270 T157 KERAX KERAX5A
Aircraft A320/M-SDE3FGHIRWY/LB1

Departure

Time 2026-05-06 14:36
Airport Hamburg Helmut Schmidt Airport (EDDH)

Arrival

Time 2026-05-06 15:27
Airport Frankfurt Main Airport (EDDF)
Time Latitude Longitude Altitude Speed Heading
2026-05-06 13:51 53.63245 10.00357 49 ft 0 kts 86°
2026-05-06 14:12 53.63245 10.00347 48 ft 4 kts 85°
2026-05-06 14:12 53.63242 10.00302 48 ft 4 kts 82°
2026-05-06 14:12 53.63238 10.00257 44 ft 4 kts 83°
2026-05-06 14:12 53.63237 10.00213 46 ft 4 kts 103°
2026-05-06 14:13 53.63246 10.00188 45 ft 3 kts 176°
2026-05-06 14:13 53.63272 10.00186 45 ft 4 kts 179°
2026-05-06 14:13 53.63274 10.00186 45 ft 0 kts 179°
2026-05-06 14:17 53.63256 10.00186 45 ft 5 kts 179°
2026-05-06 14:17 53.63246 10.00184 45 ft 0 kts 189°
2026-05-06 14:18 53.63233 10.00150 48 ft 6 kts 241°
2026-05-06 14:18 53.63209 10.00092 48 ft 6 kts 232°
2026-05-06 14:18 53.63166 10.00005 48 ft 17 kts 229°
2026-05-06 14:18 53.63102 9.99906 48 ft 7 kts 184°
2026-05-06 14:19 53.63047 9.99951 48 ft 11 kts 152°
2026-05-06 14:19 53.62982 9.99976 48 ft 8 kts 183°
2026-05-06 14:19 53.62934 10.00011 48 ft 7 kts 153°
2026-05-06 14:19 53.62889 10.00037 48 ft 7 kts 176°
2026-05-06 14:20 53.62849 10.00006 46 ft 6 kts 210°
2026-05-06 14:20 53.62802 9.99959 46 ft 16 kts 211°
2026-05-06 14:20 53.62669 9.99833 45 ft 12 kts 216°
2026-05-06 14:20 53.62635 9.99722 45 ft 11 kts 258°
2026-05-06 14:21 53.62620 9.99591 44 ft 11 kts 260°
2026-05-06 14:21 53.62606 9.99468 43 ft 10 kts 258°
2026-05-06 14:21 53.62592 9.99355 45 ft 9 kts 259°
2026-05-06 14:21 53.62576 9.99206 45 ft 17 kts 259°
2026-05-06 14:22 53.62556 9.99020 47 ft 16 kts 259°
2026-05-06 14:22 53.62535 9.98849 45 ft 14 kts 259°
2026-05-06 14:22 53.62516 9.98689 47 ft 13 kts 259°
2026-05-06 14:22 53.62499 9.98542 47 ft 12 kts 259°
2026-05-06 14:23 53.62484 9.98405 47 ft 11 kts 259°
2026-05-06 14:23 53.62470 9.98278 47 ft 11 kts 259°
2026-05-06 14:23 53.62449 9.98164 44 ft 10 kts 248°
2026-05-06 14:23 53.62419 9.98067 47 ft 9 kts 238°
2026-05-06 14:24 53.62382 9.97993 47 ft 8 kts 229°
2026-05-06 14:24 53.62348 9.97928 47 ft 7 kts 231°
2026-05-06 14:24 53.62320 9.97870 46 ft 6 kts 232°
2026-05-06 14:24 53.62273 9.97771 47 ft 16 kts 231°
2026-05-06 14:25 53.62226 9.97678 47 ft 0 kts 230°
2026-05-06 14:25 53.62225 9.97675 47 ft 1 kts 230°
2026-05-06 14:25 53.62224 9.97673 47 ft 0 kts 230°
2026-05-06 14:26 53.62224 9.97672 47 ft 0 kts 230°
2026-05-06 14:26 53.62223 9.97670 47 ft 1 kts 230°
2026-05-06 14:26 53.62219 9.97663 47 ft 1 kts 230°
2026-05-06 14:26 53.62218 9.97661 47 ft 0 kts 230°
2026-05-06 14:27 53.62199 9.97622 47 ft 6 kts 230°
2026-05-06 14:27 53.62183 9.97564 45 ft 5 kts 253°
2026-05-06 14:27 53.62178 9.97530 47 ft 0 kts 263°
2026-05-06 14:29 53.62179 9.97503 47 ft 5 kts 275°
2026-05-06 14:29 53.62182 9.97477 47 ft 0 kts 283°
2026-05-06 14:29 53.62182 9.97474 47 ft 0 kts 283°
2026-05-06 14:32 53.62186 9.97455 46 ft 4 kts 296°
2026-05-06 14:33 53.62207 9.97409 44 ft 0 kts 317°
2026-05-06 14:34 53.62210 9.97405 43 ft 2 kts 317°
2026-05-06 14:34 53.62231 9.97381 42 ft 5 kts 336°
2026-05-06 14:34 53.62288 9.97362 40 ft 11 kts
2026-05-06 14:35 53.62349 9.97430 40 ft 0 kts 50°
2026-05-06 14:35 53.62351 9.97433 40 ft 3 kts 50°
2026-05-06 14:35 53.62472 9.97678 40 ft 64 kts 50°
2026-05-06 14:35 53.62906 9.98557 45 ft 128 kts 50°
2026-05-06 14:36 53.63537 9.99839 431 ft 147 kts 50°
2026-05-06 14:36 53.64206 10.01223 1149 ft 156 kts 52°
2026-05-06 14:36 53.64894 10.02684 1836 ft 165 kts 51°
2026-05-06 14:36 53.65675 10.04276 2260 ft 187 kts 50°
2026-05-06 14:37 53.66528 10.06000 2943 ft 194 kts 51°
2026-05-06 14:37 53.67402 10.07766 3754 ft 198 kts 51°
2026-05-06 14:37 53.68281 10.09548 4539 ft 203 kts 52°
2026-05-06 14:37 53.69197 10.11411 5284 ft 209 kts 52°
2026-05-06 14:38 53.70025 10.13437 6079 ft 213 kts 68°
2026-05-06 14:38 53.70298 10.15913 6760 ft 220 kts 92°
2026-05-06 14:38 53.69865 10.18414 7459 ft 230 kts 117°
2026-05-06 14:38 53.68698 10.20461 7908 ft 259 kts 148°
2026-05-06 14:39 53.66924 10.21515 8502 ft 279 kts 164°
2026-05-06 14:39 53.65023 10.22357 9359 ft 286 kts 164°
2026-05-06 14:39 53.63075 10.23215 10146 ft 294 kts 165°
2026-05-06 14:39 53.61013 10.24128 10471 ft 318 kts 164°
2026-05-06 14:40 53.58798 10.25117 10834 ft 337 kts 164°
2026-05-06 14:40 53.56504 10.26145 11531 ft 344 kts 164°
2026-05-06 14:40 53.54178 10.27187 12388 ft 346 kts 164°
2026-05-06 14:40 53.52636 10.27880 12971 ft 347 kts 164°
2026-05-06 14:41 53.50292 10.28932 13771 ft 350 kts 165°
2026-05-06 14:41 53.47925 10.29998 14433 ft 354 kts 165°
2026-05-06 14:41 53.45532 10.31070 15131 ft 357 kts 165°
2026-05-06 14:41 53.43121 10.32147 15826 ft 360 kts 166°
2026-05-06 14:42 53.40684 10.33236 16497 ft 364 kts 166°
2026-05-06 14:42 53.38218 10.34343 17170 ft 367 kts 167°
2026-05-06 14:42 53.35771 10.35443 17851 ft 371 kts 167°
2026-05-06 14:42 53.33270 10.36569 18469 ft 375 kts 167°
2026-05-06 14:43 53.30740 10.37709 19050 ft 378 kts 167°
2026-05-06 14:43 53.28189 10.38859 19617 ft 382 kts 166°
2026-05-06 14:43 53.25611 10.40016 20202 ft 385 kts 166°
2026-05-06 14:43 53.23012 10.41177 20782 ft 388 kts 166°
2026-05-06 14:44 53.20389 10.42348 21355 ft 392 kts 166°
2026-05-06 14:44 53.17742 10.43526 21923 ft 395 kts 166°
2026-05-06 14:44 53.15070 10.44707 22455 ft 399 kts 167°
2026-05-06 14:45 53.09521 10.45383 23518 ft 405 kts 183°
2026-05-06 14:45 53.06700 10.45093 23972 ft 408 kts 183°
2026-05-06 14:45 53.03866 10.44798 24414 ft 409 kts 183°
2026-05-06 14:45 53.01011 10.44506 24808 ft 412 kts 183°
2026-05-06 14:46 52.98139 10.44218 25194 ft 415 kts 183°
2026-05-06 14:46 52.95244 10.43932 25563 ft 418 kts 182°
2026-05-06 14:46 52.92333 10.43649 25975 ft 419 kts 182°
2026-05-06 14:46 52.89408 10.43365 26368 ft 421 kts 182°
2026-05-06 14:47 52.86475 10.43078 26746 ft 424 kts 182°
2026-05-06 14:47 52.83561 10.42790 27105 ft 426 kts 182°
2026-05-06 14:47 52.80590 10.42501 27466 ft 428 kts 182°
2026-05-06 14:47 52.77604 10.42210 27829 ft 430 kts 182°
2026-05-06 14:48 52.74613 10.41917 28174 ft 432 kts 182°
2026-05-06 14:48 52.71604 10.41622 28542 ft 433 kts 182°
2026-05-06 14:48 52.68587 10.41304 28832 ft 436 kts 183°
2026-05-06 14:48 52.65546 10.40905 29109 ft 439 kts 184°
2026-05-06 14:49 52.62503 10.40445 29413 ft 440 kts 185°
2026-05-06 14:49 52.59442 10.39953 29695 ft 442 kts 185°
2026-05-06 14:49 52.56379 10.39455 29812 ft 443 kts 185°
2026-05-06 14:50 52.50229 10.38505 29813 ft 444 kts 186°
2026-05-06 14:50 52.44073 10.37626 29813 ft 444 kts 186°
2026-05-06 14:51 52.37954 10.36760 29809 ft 444 kts 186°
2026-05-06 14:51 52.31793 10.35868 29810 ft 444 kts 186°
2026-05-06 14:52 52.25646 10.34988 29809 ft 443 kts 186°
2026-05-06 14:52 52.19511 10.34111 29807 ft 442 kts 186°
2026-05-06 14:53 52.13386 10.33228 29806 ft 442 kts 186°
2026-05-06 14:53 52.07250 10.32351 29798 ft 442 kts 186°
2026-05-06 14:54 52.01118 10.31479 29789 ft 442 kts 186°
2026-05-06 14:54 51.95029 10.30619 29777 ft 441 kts 187°
2026-05-06 14:54 51.92014 10.30189 29792 ft 429 kts 187°
2026-05-06 14:55 51.89059 10.29762 29789 ft 425 kts 187°
2026-05-06 14:55 51.83181 10.28912 29780 ft 423 kts 187°
2026-05-06 14:56 51.77320 10.28080 29789 ft 422 kts 187°
2026-05-06 14:56 51.71468 10.27256 29786 ft 422 kts 187°
2026-05-06 14:56 51.68550 10.26850 29652 ft 416 kts 187°
2026-05-06 14:57 51.65714 10.26459 29451 ft 400 kts 187°
2026-05-06 14:57 51.62976 10.26080 28978 ft 391 kts 187°
2026-05-06 14:57 51.60304 10.25708 28228 ft 390 kts 187°
2026-05-06 14:57 51.57596 10.25327 27345 ft 392 kts 188°
2026-05-06 14:58 51.54873 10.24940 26432 ft 394 kts 188°
2026-05-06 14:58 51.52126 10.24553 25523 ft 397 kts 188°
2026-05-06 14:58 51.49361 10.24165 24993 ft 400 kts 188°
2026-05-06 14:58 51.46576 10.23773 24806 ft 403 kts 188°
2026-05-06 14:59 51.43785 10.23380 24770 ft 403 kts 188°
2026-05-06 14:59 51.40980 10.22990 24784 ft 404 kts 188°
2026-05-06 14:59 51.38171 10.22601 24778 ft 404 kts 188°
2026-05-06 14:59 51.35364 10.22208 24763 ft 405 kts 188°
2026-05-06 15:00 51.32575 10.21843 24777 ft 408 kts 186°
2026-05-06 15:00 51.29731 10.21642 24781 ft 410 kts 185°
2026-05-06 15:00 51.26865 10.21585 24777 ft 411 kts 183°
2026-05-06 15:00 51.24002 10.21598 24777 ft 411 kts 183°
2026-05-06 15:01 51.21145 10.21619 24776 ft 411 kts 183°
2026-05-06 15:01 51.18285 10.21620 24772 ft 410 kts 183°
2026-05-06 15:01 51.15432 10.21596 24766 ft 410 kts 184°
2026-05-06 15:01 51.12616 10.21549 24750 ft 410 kts 184°
2026-05-06 15:02 51.09755 10.21490 24748 ft 411 kts 184°
2026-05-06 15:02 51.06892 10.21431 24744 ft 411 kts 184°
2026-05-06 15:02 51.04027 10.21374 24742 ft 412 kts 184°
2026-05-06 15:02 51.01161 10.21320 24742 ft 412 kts 184°
2026-05-06 15:03 50.98286 10.21269 24741 ft 413 kts 184°
2026-05-06 15:03 50.95413 10.21218 24740 ft 413 kts 184°
2026-05-06 15:03 50.92532 10.21165 24742 ft 413 kts 184°
2026-05-06 15:03 50.89656 10.21110 24748 ft 414 kts 184°
2026-05-06 15:04 50.86772 10.21030 24737 ft 413 kts 186°
2026-05-06 15:04 50.83966 10.20227 24736 ft 409 kts 199°
2026-05-06 15:04 50.81404 10.18427 24738 ft 407 kts 212°
2026-05-06 15:04 50.79119 10.15776 24738 ft 406 kts 223°
2026-05-06 15:05 50.77240 10.12460 24740 ft 406 kts 234°
2026-05-06 15:05 50.75816 10.08610 24743 ft 407 kts 242°
2026-05-06 15:05 50.74540 10.04616 24744 ft 407 kts 242°
2026-05-06 15:05 50.73265 10.00635 24744 ft 407 kts 242°
2026-05-06 15:06 50.71981 9.96642 24741 ft 407 kts 242°
2026-05-06 15:06 50.70699 9.92660 24742 ft 407 kts 242°
2026-05-06 15:06 50.69417 9.88671 24742 ft 408 kts 242°
2026-05-06 15:06 50.68138 9.84682 24744 ft 408 kts 242°
2026-05-06 15:07 50.66855 9.80693 24757 ft 408 kts 242°
2026-05-06 15:07 50.65572 9.76710 24753 ft 408 kts 242°
2026-05-06 15:07 50.64166 9.72831 24754 ft 407 kts 235°
2026-05-06 15:07 50.62348 9.69418 24754 ft 407 kts 225°
2026-05-06 15:08 50.60184 9.66620 24755 ft 408 kts 215°
2026-05-06 15:08 50.57697 9.64445 24754 ft 410 kts 205°
2026-05-06 15:08 50.55044 9.62788 24755 ft 410 kts 203°
2026-05-06 15:08 50.52430 9.61007 24749 ft 409 kts 210°
2026-05-06 15:09 50.50079 9.58524 24748 ft 407 kts 220°
2026-05-06 15:09 50.48093 9.55371 24740 ft 406 kts 231°
2026-05-06 15:09 50.46547 9.51660 24737 ft 407 kts 242°
2026-05-06 15:09 50.45487 9.47523 24740 ft 409 kts 252°
2026-05-06 15:10 50.44685 9.43229 24740 ft 410 kts 252°
2026-05-06 15:10 50.43875 9.38936 24744 ft 411 kts 252°
2026-05-06 15:10 50.43057 9.34629 24743 ft 412 kts 252°
2026-05-06 15:10 50.42243 9.30378 24745 ft 412 kts 252°
2026-05-06 15:11 50.41416 9.26078 24345 ft 411 kts 252°
2026-05-06 15:11 50.40565 9.21862 23605 ft 405 kts 251°
2026-05-06 15:11 50.39639 9.17713 22790 ft 400 kts 249°
2026-05-06 15:11 50.38676 9.13649 21950 ft 396 kts 249°
2026-05-06 15:12 50.37706 9.09641 21150 ft 391 kts 248°
2026-05-06 15:12 50.36716 9.05693 20346 ft 387 kts 243°
2026-05-06 15:12 50.35199 9.02262 19567 ft 381 kts 224°
2026-05-06 15:12 50.33058 8.99895 18809 ft 377 kts 205°
2026-05-06 15:13 50.30552 8.98646 17678 ft 385 kts 192°
2026-05-06 15:13 50.27880 8.98512 16496 ft 398 kts 173°
2026-05-06 15:13 50.25176 8.99644 15400 ft 408 kts 163°
2026-05-06 15:13 50.22597 9.01519 14580 ft 412 kts 148°
2026-05-06 15:14 50.20510 9.04574 13878 ft 414 kts 129°
2026-05-06 15:14 50.19149 9.08506 13148 ft 414 kts 111°
2026-05-06 15:14 50.18656 9.12895 12413 ft 414 kts 90°
2026-05-06 15:14 50.19138 9.17221 12234 ft 398 kts 71°
2026-05-06 15:15 50.20452 9.20895 12076 ft 381 kts 51°
2026-05-06 15:15 50.22402 9.23582 11682 ft 371 kts 30°
2026-05-06 15:15 50.24774 9.25024 11158 ft 364 kts
2026-05-06 15:15 50.27277 9.25057 10586 ft 357 kts 347°
2026-05-06 15:16 50.29553 9.23687 10108 ft 347 kts 324°
2026-05-06 15:16 50.31219 9.21162 9980 ft 325 kts 301°
2026-05-06 15:16 50.32050 9.18026 9860 ft 304 kts 277°
2026-05-06 15:16 50.31962 9.14843 9741 ft 287 kts 252°
2026-05-06 15:17 50.31030 9.12204 9596 ft 274 kts 226°
2026-05-06 15:17 50.29473 9.10569 9278 ft 271 kts 201°
2026-05-06 15:17 50.27693 9.09607 8868 ft 270 kts 202°
2026-05-06 15:17 50.25975 9.08513 8434 ft 269 kts 204°
2026-05-06 15:18 50.24253 9.07393 8058 ft 267 kts 204°
2026-05-06 15:18 50.22539 9.06262 7632 ft 266 kts 206°
2026-05-06 15:18 50.20959 9.04853 7424 ft 257 kts 213°
2026-05-06 15:18 50.19490 9.03382 7295 ft 245 kts 213°
2026-05-06 15:19 50.18093 9.01967 7165 ft 233 kts 214°
2026-05-06 15:19 50.16759 9.00617 7040 ft 222 kts 214°
2026-05-06 15:19 50.15595 8.99117 6831 ft 215 kts 232°
2026-05-06 15:19 50.14907 8.97086 6577 ft 211 kts 248°
2026-05-06 15:20 50.14406 8.94936 6293 ft 211 kts 249°
2026-05-06 15:20 50.13908 8.92791 6003 ft 210 kts 249°
2026-05-06 15:20 50.13404 8.90642 5696 ft 212 kts 249°
2026-05-06 15:20 50.12906 8.88518 5386 ft 210 kts 249°
2026-05-06 15:21 50.12406 8.86390 5090 ft 208 kts 248°
2026-05-06 15:21 50.11911 8.84286 4797 ft 206 kts 249°
2026-05-06 15:21 50.11427 8.82232 4504 ft 198 kts 248°
2026-05-06 15:21 50.10965 8.80272 4226 ft 188 kts 249°
2026-05-06 15:22 50.10523 8.78396 3985 ft 179 kts 249°
2026-05-06 15:22 50.10095 8.76588 3719 ft 178 kts 249°
2026-05-06 15:22 50.09673 8.74802 3453 ft 176 kts 249°
2026-05-06 15:22 50.09453 8.73871 3315 ft 175 kts 250°
2026-05-06 15:23 50.09350 8.73436 3253 ft 174 kts 250°
2026-05-06 15:23 50.09271 8.73101 3208 ft 176 kts 250°
2026-05-06 15:23 50.08979 8.71864 3032 ft 177 kts 250°
2026-05-06 15:23 50.08551 8.70059 2783 ft 178 kts 250°
2026-05-06 15:24 50.08130 8.68285 2539 ft 170 kts 251°
2026-05-06 15:24 50.07735 8.66624 2318 ft 153 kts 250°
2026-05-06 15:24 50.07386 8.65158 2102 ft 138 kts 252°
2026-05-06 15:24 50.07058 8.63774 1902 ft 134 kts 251°
2026-05-06 15:25 50.06736 8.62419 1702 ft 136 kts 249°
2026-05-06 15:25 50.06410 8.61049 1504 ft 133 kts 252°
2026-05-06 15:25 50.06099 8.59712 1355 ft 132 kts 252°
2026-05-06 15:25 50.05785 8.58377 1149 ft 131 kts 252°
2026-05-06 15:26 50.05467 8.57071 935 ft 129 kts 252°
2026-05-06 15:26 50.05157 8.55759 748 ft 128 kts 254°
2026-05-06 15:26 50.04842 8.54446 566 ft 129 kts 253°
2026-05-06 15:26 50.04530 8.53149 386 ft 127 kts 251°
2026-05-06 15:27 50.04249 8.51974 336 ft 96 kts 250°
2026-05-06 15:27 50.04085 8.51294 329 ft 38 kts 249°
2026-05-06 15:27 50.03953 8.50978 326 ft 33 kts 224°
2026-05-06 15:27 50.03822 8.50836 331 ft 13 kts 181°
2026-05-06 15:28 50.03782 8.50914 334 ft 8 kts 84°
2026-05-06 15:28 50.03796 8.50987 330 ft 6 kts 68°
2026-05-06 15:28 50.03811 8.51045 333 ft 5 kts 69°
2026-05-06 15:28 50.03841 8.51172 335 ft 21 kts 69°
2026-05-06 15:29 50.03891 8.51376 333 ft 19 kts 70°
2026-05-06 15:29 50.03935 8.51567 334 ft 18 kts 71°
2026-05-06 15:29 50.03976 8.51739 335 ft 16 kts 70°
2026-05-06 15:29 50.04013 8.51893 334 ft 14 kts 69°
2026-05-06 15:30 50.04044 8.52023 337 ft 12 kts 70°
2026-05-06 15:30 50.04070 8.52132 337 ft 9 kts 70°
2026-05-06 15:30 50.04090 8.52216 347 ft 9 kts 70°
2026-05-06 15:30 50.04140 8.52426 354 ft 33 kts 69°
2026-05-06 15:31 50.04226 8.52781 356 ft 35 kts 70°
2026-05-06 15:31 50.04313 8.53142 363 ft 35 kts 69°
2026-05-06 15:31 50.04392 8.53482 375 ft 31 kts 76°
2026-05-06 15:32 50.04440 8.54185 375 ft 34 kts 84°
2026-05-06 15:32 50.04444 8.54503 371 ft 21 kts 100°
2026-05-06 15:32 50.04374 8.54704 361 ft 22 kts 136°
2026-05-06 15:32 50.04284 8.54787 356 ft 24 kts 161°
2026-05-06 15:33 50.04112 8.54884 353 ft 28 kts 160°
2026-05-06 15:33 50.03929 8.54993 355 ft 29 kts 159°
2026-05-06 15:33 50.03849 8.55118 349 ft 12 kts 71°
2026-05-06 15:33 50.03876 8.55231 352 ft 10 kts 70°
2026-05-06 15:34 50.03892 8.55302 349 ft 10 kts 70°
2026-05-06 15:34 50.03920 8.55411 351 ft 18 kts 68°
2026-05-06 15:34 50.03983 8.55680 353 ft 30 kts 70°
2026-05-06 15:34 50.04059 8.55993 353 ft 32 kts 69°
2026-05-06 15:35 50.04137 8.56319 354 ft 33 kts 69°
2026-05-06 15:35 50.04218 8.56660 364 ft 34 kts 69°
2026-05-06 15:35 50.04270 8.56805 359 ft 8 kts 25°
2026-05-06 15:35 50.04344 8.56827 360 ft 18 kts 11°
2026-05-06 15:36 50.04446 8.56856 363 ft 10 kts 22°
2026-05-06 15:36 50.04479 8.56942 360 ft 10 kts 68°
2026-05-06 15:36 50.04452 8.56997 358 ft 7 kts 160°
2026-05-06 15:36 50.04415 8.57018 360 ft 4 kts 159°
2026-05-06 15:37 50.04394 8.57031 362 ft 1 kts 159°
2026-05-06 15:37 50.04393 8.57032 362 ft 0 kts 159°